TimeCST,TemperatureF,Dew PointF,Humidity,Sea Level PressureIn,VisibilityMPH,Wind Direction,Wind SpeedMPH,Gust SpeedMPH,PrecipitationIn,Events,Conditions,WindDirDegrees,DateUTC
12:15 AM,1.4,-2.2,85,29.90,1.5,NNW,20.7,27.6,0.01,Snow,Light Snow,340,2013-01-12 06:15:00
12:35 AM,1.4,-2.2,85,29.91,2.5,NNW,21.9,26.5,0.03,Snow,Light Snow,340,2013-01-12 06:35:00
12:55 AM,1.4,-2.2,85,29.92,2.5,NNW,19.6,24.2,0.04,Snow,Light Snow,340,2013-01-12 06:55:00
1:15 AM,1.4,-2.2,85,29.93,5.0,NNW,18.4,25.3,N/A,Snow,Light Snow,340,2013-01-12 07:15:00
1:55 AM,-0.4,-4.0,85,29.95,4.0,NNW,20.7,27.6,N/A,,Partly Cloudy,330,2013-01-12 07:55:00
2:15 AM,-0.4,-4.0,85,29.96,3.0,NNW,21.9,27.6,N/A,,Haze,330,2013-01-12 08:15:00
2:35 AM,-0.4,-5.8,78,29.96,3.0,NNW,20.7,28.8,N/A,,Haze,330,2013-01-12 08:35:00
2:55 AM,-0.4,-5.8,78,29.97,4.0,NNW,18.4,24.2,N/A,,Haze,330,2013-01-12 08:55:00
3:15 AM,-0.4,-5.8,78,29.98,7.0,NNW,18.4,25.3,N/A,,Clear,330,2013-01-12 09:15:00
3:35 AM,-0.4,-5.8,78,29.99,8.0,NNW,20.7,26.5,N/A,,Clear,340,2013-01-12 09:35:00
3:55 AM,-0.4,-5.8,78,30.00,8.0,NNW,17.3,20.7,N/A,,Clear,330,2013-01-12 09:55:00
4:15 AM,-0.4,-5.8,78,30.01,6.0,NNW,18.4,24.2,N/A,,Haze,330,2013-01-12 10:15:00
4:35 AM,-0.4,-5.8,78,30.01,5.0,NNW,19.6,26.5,N/A,,Haze,340,2013-01-12 10:35:00
4:55 AM,-0.4,-5.8,78,30.01,8.0,NNW,17.3,-,N/A,,Clear,330,2013-01-12 10:55:00
5:15 AM,-0.4,-7.6,72,30.01,8.0,NNW,17.3,21.9,N/A,,Clear,330,2013-01-12 11:15:00
5:35 AM,-0.4,-7.6,72,30.01,5.0,NNW,20.7,29.9,N/A,Snow,Light Snow,330,2013-01-12 11:35:00
5:55 AM,-0.4,-7.6,72,30.02,3.0,NW,18.4,26.5,N/A,,Haze,320,2013-01-12 11:55:00
6:15 AM,-0.4,-7.6,72,30.03,7.0,NW,18.4,28.8,N/A,,Clear,320,2013-01-12 12:15:00
6:35 AM,-0.4,-7.6,72,30.04,9.0,NW,19.6,25.3,N/A,,Clear,320,2013-01-12 12:35:00
6:55 AM,-0.4,-7.6,72,30.05,10.0,NW,13.8,19.6,N/A,,Clear,320,2013-01-12 12:55:00
7:15 AM,-2.2,-9.4,71,30.06,10.0,NNW,10.4,-,N/A,,Clear,330,2013-01-12 13:15:00
7:35 AM,-2.2,-9.4,71,30.06,10.0,NNW,9.2,-,N/A,,Clear,330,2013-01-12 13:35:00
7:55 AM,-2.2,-9.4,71,30.07,10.0,NNW,11.5,17.3,N/A,,Clear,340,2013-01-12 13:55:00
8:15 AM,-2.2,-9.4,71,30.07,10.0,NNW,11.5,-,N/A,,Clear,340,2013-01-12 14:15:00
8:35 AM,-4.0,-11.2,71,30.08,10.0,NW,10.4,-,N/A,,Clear,320,2013-01-12 14:35:00
8:55 AM,-4.0,-9.4,78,30.09,10.0,NW,13.8,-,N/A,,Clear,320,2013-01-12 14:55:00
9:15 AM,-4.0,-9.4,78,30.10,10.0,NW,12.7,18.4,N/A,,Clear,320,2013-01-12 15:15:00
9:35 AM,-2.2,-9.4,71,30.11,10.0,NW,12.7,17.3,N/A,,Clear,310,2013-01-12 15:35:00
9:55 AM,-2.2,-9.4,71,30.11,10.0,NW,10.4,-,N/A,,Clear,310,2013-01-12 15:55:00
10:15 AM,-2.2,-9.4,71,30.12,10.0,WNW,10.4,-,N/A,,Clear,300,2013-01-12 16:15:00
10:35 AM,-0.4,-9.4,66,30.12,10.0,WNW,11.5,16.1,N/A,,Clear,300,2013-01-12 16:35:00
10:55 AM,-0.4,-11.2,60,30.13,10.0,WNW,11.5,-,N/A,,Clear,300,2013-01-12 16:55:00
11:15 AM,-2.2,-9.4,71,30.13,10.0,WNW,10.4,-,N/A,,Clear,290,2013-01-12 17:15:00
11:35 AM,-2.2,-9.4,71,30.13,10.0,WNW,9.2,-,N/A,,Clear,290,2013-01-12 17:35:00
11:55 AM,-0.4,-9.4,66,30.13,10.0,West,11.5,-,N/A,,Clear,280,2013-01-12 17:55:00
12:15 PM,-0.4,-9.4,66,30.13,10.0,West,13.8,-,N/A,,Clear,270,2013-01-12 18:15:00
12:35 PM,-0.4,-7.6,72,30.13,10.0,West,12.7,-,N/A,,Clear,270,2013-01-12 18:35:00
12:55 PM,-0.4,-7.6,72,30.13,10.0,West,11.5,-,N/A,,Clear,270,2013-01-12 18:55:00
1:35 PM,1.4,-7.6,66,30.13,10.0,West,12.7,-,N/A,,Clear,270,2013-01-12 19:35:00
1:55 PM,1.4,-7.6,66,30.13,10.0,WNW,11.5,-,N/A,,Clear,290,2013-01-12 19:55:00
2:15 PM,1.4,-7.6,66,30.13,10.0,West,10.4,-,N/A,,Clear,260,2013-01-12 20:15:00
2:35 PM,1.4,-7.6,66,30.13,10.0,West,8.1,-,N/A,,Clear,260,2013-01-12 20:35:00
2:55 PM,1.4,-5.8,72,30.13,10.0,WSW,6.9,-,N/A,,Clear,250,2013-01-12 20:55:00
3:15 PM,3.2,-4.0,72,30.13,10.0,WSW,9.2,-,N/A,,Clear,250,2013-01-12 21:15:00
3:35 PM,3.2,-4.0,72,30.14,10.0,WSW,9.2,-,N/A,,Clear,250,2013-01-12 21:35:00
3:55 PM,3.2,-4.0,72,30.14,10.0,WSW,6.9,-,N/A,,Clear,250,2013-01-12 21:55:00
4:15 PM,3.2,-4.0,72,30.14,10.0,WSW,8.1,-,N/A,,Clear,250,2013-01-12 22:15:00
4:35 PM,3.2,-4.0,72,30.14,10.0,West,8.1,-,N/A,,Clear,260,2013-01-12 22:35:00
4:55 PM,1.4,-4.0,78,30.14,10.0,WSW,5.8,-,N/A,,Clear,250,2013-01-12 22:55:00
5:15 PM,1.4,-4.0,78,30.14,10.0,WSW,8.1,-,N/A,,Clear,250,2013-01-12 23:15:00
5:35 PM,-0.4,-5.8,78,30.14,10.0,WSW,8.1,-,N/A,,Clear,250,2013-01-12 23:35:00
5:55 PM,-0.4,-5.8,78,30.14,10.0,West,8.1,-,N/A,,Clear,260,2013-01-12 23:55:00
6:15 PM,-0.4,-7.6,72,30.14,10.0,West,5.8,-,N/A,,Clear,260,2013-01-13 00:15:00
6:35 PM,-2.2,-7.6,78,30.14,10.0,WSW,8.1,-,N/A,,Clear,240,2013-01-13 00:35:00
6:55 PM,-2.2,-7.6,78,30.14,10.0,SW,4.6,-,N/A,,Clear,230,2013-01-13 00:55:00
7:15 PM,-4.0,-9.4,78,30.14,10.0,SW,9.2,-,N/A,,Clear,220,2013-01-13 01:15:00
7:35 PM,-4.0,-11.2,71,30.14,10.0,SW,3.5,-,N/A,,Clear,230,2013-01-13 01:35:00
7:55 PM,-4.0,-9.4,78,30.14,10.0,Calm,Calm,-,N/A,,Clear,0,2013-01-13 01:55:00
8:15 PM,-5.8,-11.2,77,30.13,10.0,SW,4.6,-,N/A,,Clear,230,2013-01-13 02:15:00
8:35 PM,-5.8,-11.2,77,30.13,10.0,WSW,6.9,-,N/A,,Clear,240,2013-01-13 02:35:00
8:55 PM,-7.6,-13.0,77,30.13,10.0,WSW,8.1,-,N/A,,Clear,240,2013-01-13 02:55:00
9:15 PM,-9.4,-13.0,84,30.13,10.0,WSW,4.6,-,N/A,,Clear,240,2013-01-13 03:15:00
9:35 PM,-9.4,-13.0,84,30.12,10.0,West,3.5,-,N/A,,Clear,260,2013-01-13 03:35:00
9:55 PM,-5.8,-11.2,77,30.12,10.0,WSW,3.5,-,N/A,,Clear,240,2013-01-13 03:55:00
10:35 PM,-9.4,-14.8,77,30.12,10.0,SW,6.9,-,N/A,,Clear,220,2013-01-13 04:35:00
10:55 PM,-5.8,-11.2,77,30.12,10.0,SSW,9.2,-,N/A,,Clear,210,2013-01-13 04:55:00
11:35 PM,-7.6,-9999,N/A,30.12,10.0,SW,8.1,-,N/A,,Clear,220,2013-01-13 05:35:00
11:55 PM,-7.6,-11.2,84,30.12,10.0,Calm,Calm,-,N/A,,Clear,0,2013-01-13 05:55:00